This is the latest recevied weather packets stored in our database for station/object VE1UHF-4. If no packets are shown the sender has not sent any weather packets the latest 10 day(s).
| Time | Temp. | Humidity | Pressure | Rain* | Wind** | Luminosity | Snow |
|---|---|---|---|---|---|---|---|
| 1777764688 | 17.22° C | 72% | 1008.5 hPa | 0 mm | - | - | - |
| 1777763788 | 17.22° C | 72% | 1008.3 hPa | 0 mm | - | - | - |
| 1777762887 | 17.78° C | 72% | 1008.2 hPa | 0 mm | - | - | - |
| 1777761987 | 18.33° C | 72% | 1008.1 hPa | 0 mm | - | - | - |
| 1777761086 | 18.33° C | 71% | 1008 hPa | 0 mm | - | - | - |
| 1777760186 | 18.89° C | 71% | 1007.9 hPa | 0 mm | - | - | - |
| 1777759286 | 18.89° C | 71% | 1007.7 hPa | 0 mm | - | - | - |
| 1777758385 | 19.44° C | 72% | 1007.6 hPa | 0 mm | - | - | - |
| 1777757484 | 19.44° C | 71% | 1007.6 hPa | 0 mm | - | - | - |
| 1777756583 | 20° C | 72% | 1007.6 hPa | 0 mm | - | - | - |
| 1777755683 | 20.56° C | 72% | 1007.4 hPa | 0 mm | - | - | - |
| 1777754783 | 20.56° C | 72% | 1007.5 hPa | 0 mm | - | - | - |
| 1777753882 | 21.11° C | 72% | 1007.3 hPa | 0 mm | - | - | - |
| 1777752981 | 21.11° C | 72% | 1007.1 hPa | 0 mm | - | - | - |
| 1777752081 | 21.11° C | 73% | 1007.2 hPa | 0 mm | - | - | - |
| 1777751180 | 21.11° C | 72% | 1007.1 hPa | 0 mm | - | - | - |
| 1777750280 | 21.67° C | 73% | 1007 hPa | 0 mm | - | - | - |
| 1777749379 | 21.67° C | 74% | 1007.2 hPa | 0 mm | - | - | - |
| 1777748479 | 22.22° C | 75% | 1007.3 hPa | 0 mm | - | - | - |
| 1777747578 | 22.22° C | 77% | 1007.3 hPa | 0 mm | - | - | - |
| 1777746678 | 22.22° C | 79% | 1007.5 hPa | 0 mm | - | - | - |
| 1777745777 | 22.22° C | 81% | 1007.5 hPa | 0 mm | - | - | - |
| 1777744876 | 22.22° C | 82% | 1007.5 hPa | 0 mm | - | - | - |
| 1777743976 | 21.67° C | 84% | 1007.2 hPa | 0 mm | - | - | - |
| 1777743075 | 21.11° C | 84% | 1007.3 hPa | 0 mm | - | - | - |
* Rain since midnight (hover to see other rain measurements)
** Current wind speed in m/s (hover to see current wind gust speed)